sat.trackr.live / text

‹ back to catalog

STARLINK-31054

NORAD 58619 · 2023-203B

PAYLOAD ACTIVE UNKNOWN

§ Identity

Operator
Country
US
Launch date
2023-12-23
Launch site
AFETR
Launch vehicle
Mass (kg)
RCS (m²)

Purposes: comms

External: N2YO · Heavens-Above · Gunter

§ Orbital elements

Epoch: 2026-09-20T16:44:42.974304Z

Period
94.27 min
Inclination
43.0026°
Eccentricity
0.0001141
Mean motion
15.27585296 rev/d
Perigee alt
482.3 km
Apogee alt
483.8 km
Semi-major
6,861.2 km
B*
4.6831e-5
RAAN
45.9375°
Arg perigee
276.0545°
Mean anomaly
84.0177°
Rev number
15,338

§ Raw data

STARLINK-310541 58619U 23203B   26263.69771961  .00001027  00000+0  46831-4 0  99992 58619  43.0026  45.9375 0001141 276.0545  84.0177 15.27585296153382

JSON: /api/v1/satellites/58619 · /tle

For live sub-satellite position, see the globe view (requires WebGL).

§ Visibility from observer

Set your observer location to see the next 7 days of passes ≥ 10°. The values pass through the URL so the page stays shareable.

No JS? Fill the form by hand. The geolocation button needs JavaScript.